Home > Weather > Oral > Past weeks

Flag for Kazakhstan Past Weather in Oral, Kazakhstan — Yesterday and Last 2 Weeks

Now
73 °F

Scattered clouds.


Feels Like: 77 °F
Forecast: 61 / 81 °F
Wind: 10 mph from North

Location: Uralsk

Current Time: Jul 1, 2016 at 1:19:39 PM

Latest Report: Jul 1, 2016 at 1:00 PM


Visibility: N/A

Pressure: 29.89 "Hg

Humidity: 44%

Dew Point: 50 °F

Location of OralLocation

Past Weather in Oral — Graph

°F

Oral Temperature Yesterday

Maximum temperature yesterday: 81 °F (at 4:00 PM)
Minimum temperature yesterday: 52 °F (at 5:00 AM)
Average temperature yesterday: 69 °F

High & Low Weather Summary for the Past Weeks

 TemperatureHumidityPressure
High93 °F (Jun 17, 2:30 PM)100% (Jun 27, 6:00 PM)30.15 "Hg (Jun 27, 6:00 PM)
Low48 °F (Jun 29, 5:00 AM)21% (Jun 17, 5:00 PM)29.62 "Hg (Jun 27, 8:30 PM)
Average76 °F55%29.96 "Hg
* Reported Jun 16 12:00 PM — Jul 1 12:00 PM, Oral, Weather by CustomWeather, © 2016

Note: Actual official high and low records may vary slightly from our data, if they occured in-between our weather recording intervals... More about our weather records

Advertising

Oral Weather History for the Previous 24 Hours

Scroll right to see more
 ConditionsComfort  
Time TempWeatherWind HumidityBarometerVisibility
12:00 PM
Fri, Jul 1
72 °FScattered clouds.13 mph47%29.92 "HgN/A
11:30 AM72 °FPassing clouds.13 mph47%29.92 "HgN/A
11:00 AM72 °FPassing clouds.13 mph50%29.92 "HgN/A
10:30 AM70 °FPassing clouds.10 mph53%29.92 "HgN/A
10:00 AM68 °FPassing clouds.10 mph60%29.92 "HgN/A
9:30 AM66 °FPassing clouds.10 mph64%29.92 "HgN/A
9:00 AM64 °FSunny.13 mph68%29.92 "Hg10 mi
8:30 AM64 °FSunny.13 mph68%29.92 "Hg10 mi
8:00 AM63 °FSunny.10 mph73%29.92 "Hg10 mi
7:30 AM61 °FSunny.8 mph77%29.92 "Hg10 mi
7:00 AM59 °FSunny.8 mph77%29.89 "Hg10 mi
6:30 AM55 °FSunny.3 mph88%29.89 "Hg10 mi
6:00 AM54 °FSunny.6 mph94%29.89 "Hg10 mi
5:30 AM54 °FSunny.6 mph88%29.89 "Hg10 mi
5:00 AM54 °FClear.6 mph94%29.89 "Hg10 mi
4:00 AM55 °FClear.6 mph88%29.86 "Hg10 mi
3:00 AM55 °FClear.6 mph88%29.86 "Hg10 mi
2:00 AM57 °FClear.6 mph82%29.86 "Hg10 mi
1:00 AM59 °FClear.3 mph77%29.86 "Hg10 mi
12:00 AM63 °FClear.3 mph68%29.86 "Hg10 mi
11:00 PM
Thu, Jun 30
61 °FClear.6 mph72%29.86 "Hg10 mi
10:00 PM66 °FClear.6 mph60%29.86 "Hg10 mi
9:00 PM75 °FSunny.8 mph36%29.83 "Hg10 mi
8:00 PM77 °FSunny.13 mph34%29.83 "Hg10 mi
7:30 PM79 °FSunny.15 mph32%29.83 "Hg10 mi
7:00 PM79 °FPassing clouds.15 mph32%29.83 "HgN/A
6:30 PM81 °FSunny.13 mph30%29.83 "Hg10 mi
6:00 PM81 °FPassing clouds.13 mph32%29.83 "HgN/A
5:30 PM81 °FPassing clouds.13 mph30%29.83 "HgN/A
5:00 PM81 °FPassing clouds.13 mph30%29.83 "HgN/A
4:30 PM81 °FPassing clouds.10 mph32%29.83 "HgN/A
4:00 PM81 °FPassing clouds.10 mph32%29.83 "HgN/A
3:30 PM79 °FPassing clouds.8 mph34%29.86 "HgN/A
2:30 PM79 °FPassing clouds.8 mph37%29.86 "HgN/A
2:00 PM79 °FPassing clouds.10 mph34%29.86 "HgN/A
1:30 PM77 °FPassing clouds.10 mph39%29.86 "HgN/A
1:00 PM77 °FPassing clouds.8 mph36%29.86 "HgN/A
Weather by CustomWeather, © 2016

See weather overviewHow to use our weather pages